Retour au catalogue

PEGASUS DEB

ActifPO
NORAD 39922·DEBRIS·🇺🇸 United States

Lancé May 19, 1994 depuis Vandenberg Space Force Base

Loading…

Prochains Passages (prochaines 24 heures)

TLE

VieillissantSource: Space-Track

Époque: Sep 10, 2026, 06:25 UTC

1 39922U 94029AFV 26253.26739611  .00007383  00000-0  60479-3 0  9992
2 39922  81.5812 243.1854 0105909  55.0290 306.0816 14.94784888657513

Suivez PEGASUS DEB en temps réel avec AllMySat

Download on the App Store